This is the latest recevied weather packets stored in our database for station/object W8CEN. If no packets are shown the sender has not sent any weather packets the latest 10 day(s).
| Time | Temp. | Humidity | Pressure | Rain* | Wind** | Luminosity | Snow |
|---|---|---|---|---|---|---|---|
| 1777554567 | 7.78° C | 83% | 993.1 hPa | 0 mm | - | 125 W/m² | - |
| 1777554263 | 8.33° C | 84% | 993.3 hPa | 0 mm | - | 105 W/m² | - |
| 1777553960 | 7.78° C | 83% | 993 hPa | 0 mm | - | 138 W/m² | - |
| 1777553657 | 7.78° C | 84% | 993 hPa | 0 mm | - | 161 W/m² | - |
| 1777553354 | 7.78° C | 84% | 992.9 hPa | 0 mm | - | 177 W/m² | - |
| 1777553050 | 7.78° C | 84% | 992.8 hPa | 0 mm | - | 156 W/m² | - |
| 1777552745 | 7.78° C | 85% | 993 hPa | 0 mm | - | 94 W/m² | - |
| 1777552441 | 7.22° C | 85% | 993 hPa | 0 mm | - | 123 W/m² | - |
| 1777552137 | 7.22° C | 84% | 993 hPa | 0 mm | - | 94 W/m² | - |
| 1777551835 | 7.22° C | 85% | 992.9 hPa | 0 mm | - | 48 W/m² | - |
| 1777551532 | 7.22° C | 85% | 992.8 hPa | 0 mm | - | 85 W/m² | - |
| 1777551228 | 7.22° C | 85% | 992.8 hPa | 0 mm | - | 60 W/m² | - |
| 1777550925 | 7.22° C | 85% | 992.8 hPa | 0 mm | - | 44 W/m² | - |
| 1777550622 | 7.22° C | 86% | 993.1 hPa | 0 mm | - | 34 W/m² | - |
| 1777550318 | 6.67° C | 86% | 992.7 hPa | 0 mm | - | 43 W/m² | - |
| 1777550015 | 6.67° C | 86% | 992.7 hPa | 0 mm | - | 31 W/m² | - |
| 1777549712 | 6.67° C | 85% | 992.9 hPa | 0 mm | - | 32 W/m² | - |
| 1777549406 | 6.67° C | 85% | 992.5 hPa | 0 mm | - | 16 W/m² | - |
| 1777549104 | 6.67° C | 85% | 992.7 hPa | 0 mm | - | 20 W/m² | - |
| 1777548800 | 6.67° C | 85% | 992.7 hPa | 0 mm | - | 24 W/m² | - |
| 1777548497 | 6.67° C | 85% | 992.6 hPa | 0 mm | - | 20 W/m² | - |
| 1777548194 | 6.67° C | 85% | 992.7 hPa | 0 mm | - | 24 W/m² | - |
| 1777547890 | 6.67° C | 85% | 992.6 hPa | 0 mm | - | 25 W/m² | - |
| 1777547586 | 6.67° C | 84% | 992.7 hPa | 0 mm | - | 16 W/m² | - |
| 1777547284 | 6.67° C | 85% | 992.4 hPa | 0 mm | - | 17 W/m² | - |
* Rain latest hour (hover to see other rain measurements)
** Current wind speed in m/s (hover to see current wind gust speed)